Date String (YYYY-MM-DD hh:mm:ss) UTC,Instrument flags,absolute air pressure of the measurement (hPa),sample flow rate (lpm),inlet stack bypass flow (lpm),air temperature of the measurement (°C),ambient temperature measured by the external sensor (°C),aerosol sample conditioner tube jacket temperature (°C),OPC LED temperature (°C),internal box temperature (°C),relative humidity of the measurement (%),span deviation,mass concentration of particles derived from Lorenz-Mie calculation of OPC scattering (μg/m³),mass concentration of particles derived from Lorenz-Mie calculation of OPC scattering (μg/m³),mass concentration of particles derived from Lorenz-Mie calculation of OPC scattering (μg/m³)
DateTimeUTC,F1_M11,P_M11,Q1_M11,Q2_M11,T1_M11,T2_M11,T3_M11,T4_M11,T5_M11,U1_M11,ZSPAN_M11,X0_M11,X2_M11,X1_M11
2023-08-14 16:00:00,SystemResetWarning,0841.8,5.00,000.00,029.5,028.3,000.0,038.0,031.2,20.7,0000.0,0008.30,0003.54,0003.14
2023-08-14 16:01:00,SystemResetWarning,0841.8,5.00,000.00,029.5,028.3,000.0,038.0,031.2,20.6,0000.0,0008.39,0003.55,0003.13
2023-08-14 16:02:00,SystemResetWarning,0841.7,4.99,000.00,029.5,027.0,000.0,037.8,031.0,20.9,0000.0,0008.34,0003.52,0003.14
2023-08-14 16:03:00,SystemResetWarning,0841.7,5.00,000.00,029.4,025.3,000.0,037.7,030.6,21.2,0000.0,0008.35,0003.53,0003.15
2023-08-14 16:04:00,SystemResetWarning,0841.7,5.01,000.00,029.3,025.2,000.0,037.6,030.5,21.2,0000.0,0008.28,0003.54,0003.15
2023-08-14 16:05:00,SystemResetWarning,0841.7,5.02,000.00,029.3,025.5,000.0,037.7,030.4,21.7,0000.0,0008.90,0003.54,0003.16
2023-08-14 16:06:00,SystemResetWarning,0841.7,5.00,000.00,029.2,025.8,000.0,037.7,030.5,21.8,0000.0,0008.88,0003.53,0003.17
2023-08-14 16:07:00,SystemResetWarning,0841.7,5.00,000.00,029.2,026.2,000.0,037.7,030.6,22.0,0000.0,0008.22,0003.54,0003.18
2023-08-14 16:08:00,SystemResetWarning,0841.7,5.00,000.00,029.2,026.6,000.0,037.7,030.7,21.4,0000.0,0007.84,0003.53,0003.18
2023-08-14 16:09:00,SystemResetWarning,0841.7,5.00,000.00,029.2,026.9,000.0,037.7,030.7,21.2,0000.0,0007.67,0003.51,0003.19
2023-08-14 16:10:00,SystemResetWarning,0841.7,5.00,000.00,029.2,027.2,000.0,037.7,030.8,21.3,0000.0,0007.43,0003.48,0003.19
2023-08-14 16:11:00,SystemResetWarning,0841.8,5.00,000.00,029.2,027.4,000.0,037.8,030.8,21.5,0000.0,0007.43,0003.48,0003.19
2023-08-14 16:12:00,SystemResetWarning,0841.8,5.00,000.00,029.2,027.6,000.0,037.8,030.9,21.4,0000.0,0007.39,0003.49,0003.20
2023-08-14 16:13:00,SystemResetWarning,0841.7,5.01,000.00,029.3,027.8,000.0,037.8,030.9,21.3,0000.0,0007.38,0003.49,0003.20
2023-08-14 16:14:00,SystemResetWarning,0841.7,5.00,000.00,029.3,027.9,000.0,037.8,031.0,21.7,0000.0,0007.36,0003.49,0003.20
2023-08-14 16:15:00,SystemResetWarning,0841.7,4.99,000.00,029.3,028.0,000.0,037.8,031.0,21.0,0000.0,0007.41,0003.49,0003.19
2023-08-14 16:16:00,SystemResetWarning,0841.7,5.00,000.00,029.4,028.1,000.0,037.8,031.1,21.1,0000.0,0006.44,0003.51,0003.21
2023-08-14 16:17:00,SystemResetWarning,0841.7,5.00,000.00,029.4,028.2,000.0,037.8,031.1,21.1,0000.0,0006.97,0003.54,0003.20
2023-08-14 16:18:00,SystemResetWarning,0841.7,5.00,000.00,029.4,028.3,000.0,037.9,031.1,21.4,0000.0,0007.48,0003.54,0003.20
2023-08-14 16:19:00,SystemResetWarning,0841.7,5.00,000.00,029.5,028.0,000.0,037.8,031.1,21.4,0000.0,0007.53,0003.54,0003.21
2023-08-14 16:20:00,SystemResetWarning,0841.7,5.00,000.00,029.4,026.1,000.0,037.7,030.8,20.9,0000.0,0007.43,0003.54,0003.21
2023-08-14 16:21:00,SystemResetWarning,0841.7,5.00,000.00,029.3,025.0,000.0,037.6,030.5,21.0,0000.0,0007.22,0003.54,0003.21
2023-08-14 16:22:00,SystemResetWarning,0841.7,5.02,000.00,029.2,025.3,000.0,037.5,030.4,20.8,0000.0,0006.70,0003.52,0003.22
2023-08-14 16:23:00,SystemResetWarning,0841.7,5.00,000.00,029.2,025.6,000.0,037.6,030.4,21.0,0000.0,0006.72,0003.54,0003.23
2023-08-14 16:24:00,SystemResetWarning,0841.7,5.00,000.00,029.1,026.0,000.0,037.6,030.5,20.9,0000.0,0006.82,0003.56,0003.23
2023-08-14 16:25:00,SystemResetWarning,0841.7,5.00,000.00,029.1,026.4,000.0,037.6,030.6,20.9,0000.0,0006.98,0003.58,0003.24
2023-08-14 16:26:00,SystemResetWarning,0841.7,5.01,000.00,029.1,026.7,000.0,037.7,030.7,20.9,0000.0,0007.34,0003.58,0003.26
2023-08-14 16:27:00,SystemResetWarning,0841.7,4.99,000.00,029.1,027.0,000.0,037.7,030.7,21.1,0000.0,0007.24,0003.55,0003.26
2023-08-14 16:28:00,SystemResetWarning,0841.7,5.00,000.00,029.1,027.3,000.0,037.7,030.8,21.1,0000.0,0007.17,0003.54,0003.27
2023-08-14 16:29:00,SystemResetWarning,0841.7,5.00,000.00,029.2,027.5,000.0,037.7,030.8,20.9,0000.0,0007.35,0003.56,0003.26
2023-08-14 16:30:00,SystemResetWarning,0841.7,5.00,000.00,029.2,027.7,000.0,037.7,030.9,20.9,0000.0,0007.53,0003.55,0003.27
2023-08-14 16:31:00,SystemResetWarning,0841.7,5.00,000.00,029.2,027.8,000.0,037.7,030.9,21.5,0000.0,0007.73,0003.53,0003.27
2023-08-14 16:32:00,SystemResetWarning,0841.7,5.01,000.00,029.3,027.9,000.0,037.7,031.0,21.4,0000.0,0008.54,0003.58,0003.27
2023-08-14 16:33:00,SystemResetWarning,0841.7,5.01,000.00,029.3,028.1,000.0,037.7,031.0,21.2,0000.0,0008.78,0003.61,0003.28
2023-08-14 16:34:00,SystemResetWarning,0841.7,4.99,000.00,029.3,028.2,000.0,037.8,031.1,21.2,0000.0,0008.90,0003.62,0003.28
2023-08-14 16:35:00,SystemResetWarning,0841.7,4.99,000.00,029.4,028.2,000.0,037.8,031.1,21.2,0000.0,0009.17,0003.61,0003.28
2023-08-14 16:36:00,SystemResetWarning,0841.6,5.00,000.00,029.4,027.1,000.0,037.7,030.9,20.9,0000.0,0009.87,0003.63,0003.28
2023-08-14 16:37:00,SystemResetWarning,0841.6,5.00,000.00,029.3,025.4,000.0,037.6,030.5,21.1,0000.0,0009.62,0003.63,0003.28
2023-08-14 16:38:00,SystemResetWarning,0841.6,5.00,000.00,029.2,025.1,000.0,037.5,030.4,21.1,0000.0,0009.68,0003.64,0003.27
2023-08-14 16:39:00,SystemResetWarning,0841.6,5.02,000.00,029.1,025.4,000.0,037.5,030.4,21.6,0000.0,0009.45,0003.64,0003.28
2023-08-14 16:40:00,SystemResetWarning,0841.6,5.00,000.00,029.1,025.7,000.0,037.5,030.4,21.7,0000.0,0009.13,0003.64,0003.29
2023-08-14 16:41:00,SystemResetWarning,0841.6,5.00,000.00,029.0,026.1,000.0,037.6,030.5,22.0,0000.0,0008.89,0003.66,0003.30
2023-08-14 16:42:00,SystemResetWarning,0841.6,5.00,000.00,029.0,026.5,000.0,037.6,030.6,21.8,0000.0,0008.55,0003.69,0003.31
2023-08-14 16:43:00,SystemResetWarning,0841.6,5.00,000.00,029.1,026.8,000.0,037.6,030.6,22.3,0000.0,0008.23,0003.66,0003.31
2023-08-14 16:44:00,SystemResetWarning,0841.6,5.00,000.00,029.1,027.1,000.0,037.6,030.7,21.8,0000.0,0007.88,0003.67,0003.32
2023-08-14 16:45:00,SystemResetWarning,0841.6,5.00,000.00,029.1,027.3,000.0,037.6,030.8,21.6,0000.0,0007.74,0003.65,0003.33
2023-08-14 16:46:00,SystemResetWarning,0841.6,5.00,000.00,029.1,027.5,000.0,037.6,030.8,21.6,0000.0,0007.56,0003.65,0003.33
2023-08-14 16:47:00,SystemResetWarning,0841.6,5.00,000.00,029.2,027.7,000.0,037.6,030.8,21.6,0000.0,0006.26,0003.62,0003.34
2023-08-14 16:48:00,SystemResetWarning,0841.6,5.00,000.00,029.2,027.8,000.0,037.6,030.9,21.8,0000.0,0006.15,0003.63,0003.34
2023-08-14 16:49:00,SystemResetWarning,0841.6,5.00,000.00,029.2,027.9,000.0,037.7,030.9,21.5,0000.0,0006.04,0003.63,0003.34
2023-08-14 16:50:00,SystemResetWarning,0841.6,5.00,000.00,029.3,028.0,000.0,037.7,031.0,21.4,0000.0,0006.03,0003.64,0003.34
2023-08-14 16:51:00,SystemResetWarning,0841.6,5.00,000.00,029.3,028.1,000.0,037.7,031.0,21.7,0000.0,0006.05,0003.64,0003.33
2023-08-14 16:52:00,SystemResetWarning,0841.6,5.00,000.00,029.3,028.2,000.0,037.7,031.1,21.9,0000.0,0005.96,0003.63,0003.33
2023-08-14 16:53:00,SystemResetWarning,0841.6,4.99,000.00,029.3,027.2,000.0,037.7,030.9,21.6,0000.0,0006.18,0003.64,0003.33
2023-08-14 16:54:00,SystemResetWarning,0841.6,5.00,000.00,029.3,025.3,000.0,037.5,030.5,21.9,0000.0,0007.16,0003.69,0003.34
2023-08-14 16:55:00,SystemResetWarning,0841.6,5.01,000.00,029.2,024.9,000.0,037.4,030.4,21.9,0000.0,0007.73,0003.68,0003.34
2023-08-14 16:56:00,SystemResetWarning,0841.6,5.01,000.00,029.1,025.2,000.0,037.4,030.3,22.2,0000.0,0008.21,0003.68,0003.34
2023-08-14 16:57:00,SystemResetWarning,0841.6,5.00,000.00,029.0,025.6,000.0,037.5,030.4,22.1,0000.0,0008.29,0003.68,0003.33
2023-08-14 16:58:00,SystemResetWarning,0841.6,5.00,000.00,029.0,026.0,000.0,037.5,030.4,22.2,0000.0,0008.35,0003.70,0003.33
2023-08-14 16:59:00,SystemResetWarning,0841.6,5.00,000.00,029.0,026.4,000.0,037.5,030.5,22.4,0000.0,0008.43,0003.71,0003.32
